Weather Roundup
Issued by NWS

Home | Current Version | Previous Version | Text Only | Print | Product List | Glossary On
Versions: 1 2 3 4 5 6 7 8 9 10 11 12 13 14 15 16 17 18 19 20 21 22 23 24 25 26 27 28 29 30 31 32 33 34 35 36 37 38 39 40 41 42 43 44 45 46 47 48 49 50
000
NZUS93 KARX 021910
HRRWXR

CURRENT HOURLY OBSERVATIONS ACROSS
MUCH OF THE UPPER MISSISSIPPI VALLEY
NATIONAL WEATHER SERVICE LA CROSSE WI
200 PM CDT MON MAY 02 2016


...SOUTHEAST MINNESOTA...


CITY           SKY/WX    TMP DP  RH WIND       PRES   REMARKS
ROCHESTER      MOSUNNY   61  37  41 VRB5      30.08F
ROCHESTER/MAYO CLOUDY    60  36  40 W3        30.07F
WINONA         SUNNY     63  36  36 W6        30.07F
AUSTIN         PTSUNNY   61  36  39 CALM      30.07S
ALBERT LEA     PTSUNNY   61  37  41 S3        30.07F
DODGE CENTER   SUNNY     63  37  39 CALM      30.07F
PRESTON        CLOUDY    58  38  47 NW5       30.08F
OWATONNA       MOSUNNY   63  34  34 CALM      30.07F
FARIBAULT      SUNNY     63  34  34 W6        30.07F
$$

...ELSEWHERE IN MINNESOTA...


CITY           SKY/WX    TMP DP  RH WIND       PRES   REMARKS
MINNEAPOLIS    MOSUNNY   63  30  28 CALM      30.06F
INTNL FALLS    SUNNY     64  30  27 CALM      30.02F
DULUTH         MOSUNNY   62  34  35 S10       30.05F
RED WING       SUNNY     66  30  26 W6        30.05F
REDWOOD FALLS  SUNNY     64  29  26 CALM      30.05F
MANKATO        MOSUNNY   61  30  31 E3        30.07F
WORTHINGTON    CLOUDY    59  33  37 VRB3      30.07F
FAIRMONT       PTSUNNY   61  25  25 CALM      30.08S
$$

...SOUTHWEST WISCONSIN...


CITY           SKY/WX    TMP DP  RH WIND       PRES   REMARKS
LA CROSSE      SUNNY     64  34  32 W6        30.07F
PRAIRIE DU CHI PTSUNNY   60  35  38 SW5       30.07F
BOSCOBEL       MOSUNNY   65  33  30 VRB6      30.06F
LONE ROCK      MOSUNNY   61  35  37 NE9       30.07F
PLATTEVILLE    PTSUNNY   59  36  43 N3        30.07S
FORT MC COY    CLOUDY    60  35  38 N5        30.08S
CAMP DOUGLAS   PTSUNNY   63  36  36 VRB3      30.06F
MAUSTON-NEW LI PTCLDY    63  32  30 E3        30.05F
VIROQUA        FAIR      61  35  37 N8        30.07F
WIS DELLS      PTSUNNY   60  29  31 NE7       30.06F
$$

...ELSEWHERE IN WISCONSIN...


CITY           SKY/WX    TMP DP  RH WIND       PRES   REMARKS
MILWAUKEE      PTSUNNY   55  36  48 NE13      30.07S
MADISON        PTSUNNY   62  35  36 E6        30.06F
GREEN BAY      LGT RAIN  63  32  31 MISG      30.07F
EAU CLAIRE     PTSUNNY   63  32  31 SW7       30.06F
BLACK RVR FLS  CLOUDY    61  33  35 NW5       30.06F
MEDFORD        MOSUNNY   58  35  41 N5        30.07F
WAUSAU         PTSUNNY   64  31  28 NW5       30.04F
WIS RAPIDS     PTSUNNY   62  27  26 VRB7      30.08F
MARSHFIELD     PTSUNNY   61  34  36 VRB5      30.06F
RICE LAKE      MOSUNNY   63  33  32 W3        30.07F
$$

...NORTHEAST IOWA...


CITY           SKY/WX    TMP DP  RH WIND       PRES   REMARKS
WATERLOO       MOSUNNY   62  41  46 NE7G17    30.07F
DUBUQUE        PTSUNNY   58  40  51 NE10      30.07F
DECORAH        PTSUNNY   59  37  44 VRB6      30.07S
MASON CITY     PTSUNNY   60  40  47 VRB3      30.09F
CHARLES CITY   PTSUNNY   61  39  44 S5        30.08F
OELWEIN        MOSUNNY   59  36  41 NE9       30.08F
$$

...ELSEWHERE IN IOWA...


CITY           SKY/WX    TMP DP  RH WIND       PRES   REMARKS
DES MOINES     MOSUNNY   65  38  36 N9        30.07F
IOWA CITY      CLOUDY    57  43  59 N8        30.09F
FORT DODGE     CLOUDY    57  41  54 SE3       30.09F
MARSHALLTOWN   PTSUNNY   59  43  55 VRB7      30.07F
CEDAR RAPIDS   CLOUDY    57  45  64 E8        30.07F
$$

...NORTHERN ILLINOIS...


CITY           SKY/WX    TMP DP  RH WIND       PRES   REMARKS
CHICAGO-OHARE  PTSUNNY   57  36  45 NE17G24   30.05S
CHICAGO-MIDWAY MOSUNNY   56  34  43 NE18      30.05S
MOLINE         CLOUDY    61  41  47 E8        30.06S
ROCKFORD       CLOUDY    60  36  40 E12       30.07F
PEORIA         CLOUDY    55  43  63 NE5       30.06S
$$

NOTE: "FAIR" INDICATES FEW OR NO CLOUDS BELOW 12,000 FEET WITH NO
SIGNIFICANT WEATHER AND/OR OBSTRUCTIONS TO VISIBILITY. WIND
SPEEDS ARE IN MILES-PER-HOUR.




USA.gov is the U.S. government's official web portal to all federal, state and local government web resources and services.